User: anonymous   Login
Location: Gloden
(48.4833°N, 15.3167°E)
Time: 08:47:51
(UTC+00:00)
Language:

AO-73 - Orbit

View from above orbital plane
View from above orbital plane
View from above satellite
View from above satellite

Ground track
Ground track

The orbit data is extracted from the following two-line orbital elements,

1 39444U 13066AE  21128.94718749  .00000297  00000-0  42567-4 0  9999
2 39444  97.5820 117.6824 0056113 281.6558  77.8362 14.82399629401581
Epoch (UTC): 08 May 2021 22:43:56
Eccentricity: 0.0056113
inclination: 97.5820°
perigee height: 582 km
apogee height: 661 km
right ascension of ascending node: 117.6824°
argument of perigee: 281.6558°
revolutions per day: 14.82399629
mean anomaly at epoch: 77.8362°
orbit number at epoch: 40158

The dashed part of the orbit path shows where the satellite is in the earth's shadow,  

DLR